"Time","Temp","Dewpoint","Humidity","Pressure","Direction","Speed","Gust","Precip","PrecipRate"
"00:04:56","43.3","30.4","60.2","30.25","321","6.1","12","0.00","0.00"
"00:09:59","43.8","30.4","59.2","30.25","315","6.8","12","0.00","0.00"
"00:14:56","43.8","30.4","59","30.25","318","4.9","12","0.00","0.00"
"00:19:57","43.7","30.3","58.9","30.25","328","6.5","12","0.00","0.00"
"00:24:58","43.8","30.4","59","30.25","334","4.3","10.8","0.00","0.00"
"00:29:58","43.6","30.2","59","30.25","310","3.4","10.8","0.00","0.00"
"00:34:59","43.5","30.1","59","30.25","318","3.7","12","0.00","0.00"
"00:39:58","43.4","30","59","30.25","292","1.7","11.5","0.00","0.00"
"00:44:59","43.2","29.9","59.3","30.25","290","1.5","3.6","0.00","0.00"
"00:49:56","42.7","29.9","60.3","30.25","301","1.7","4.8","0.00","0.00"
"00:54:56","42.3","29.8","61","30.25","317","1.8","3.6","0.00","0.00"
"00:59:57","41.8","29.7","61.9","30.26","320","1.2","3.6","0.00","0.00"
"01:04:56","41.5","29.6","62.5","30.26","320","0.6","2.4","0.00","0.00"
"01:09:59","41.1","29.5","63.1","30.26","322","1.9","6","0.00","0.00"
"01:14:57","41.1","29.6","63.5","30.26","301","3.5","6","0.00","0.00"
"01:19:58","41.4","29.7","63","30.25","314","3.7","9.6","0.00","0.00"
"01:24:59","41.6","29.9","63","30.25","313","2.1","4.6","0.00","0.00"
"01:29:59","41.4","29.7","63","30.26","313","0.5","2.4","0.00","0.00"
"01:34:56","41.1","29.6","63.4","30.26","313","0","1.2","0.00","0.00"
"01:39:59","40.7","29.6","64.2","30.26","313","0","0","0.00","0.00"
"01:44:56","40.3","29.5","65","30.27","313","0.2","2.4","0.00","0.00"
"01:49:57","39.7","29.4","66.3","30.27","314","0.7","2.4","0.00","0.00"
"01:54:58","39.2","29.2","67","30.27","315","0.6","2.4","0.00","0.00"
"01:59:59","38.7","28.9","67.8","30.28","315","0","0","0.00","0.00"
"02:04:58","38.2","28.9","68.7","30.28","315","1.8","3.6","0.00","0.00"
"02:09:57","37.9","28.8","69.5","30.28","315","1.3","3.5","0.00","0.00"
"02:14:56","37.6","28.7","70","30.29","315","0.9","2.4","0.00","0.00"
"02:19:57","37.3","28.8","71","30.29","315","0","0","0.00","0.00"
"02:24:58","37","28.6","71.3","30.29","315","1.4","3.6","0.00","0.00"
"02:29:59","36.6","28.5","72.3","30.29","315","1.8","3.6","0.00","0.00"
"02:34:56","36.2","28.4","73","30.28","315","0.5","2.4","0.00","0.00"
"02:39:59","36","28.4","73.4","30.28","315","0.2","2.4","0.00","0.00"
"02:44:56","35.8","28.2","73.8","30.29","315","0.5","2.4","0.00","0.00"
"02:49:57","35.2","28.1","74.8","30.29","315","0","2.4","0.00","0.00"
"02:54:58","35","28.2","76","30.29","315","2","3.6","0.00","0.00"
"02:59:59","35.1","28.3","76","30.29","315","0.4","2.4","0.00","0.00"
"03:04:56","34.9","28.1","76","30.29","315","0","0","0.00","0.00"
"03:09:59","34.5","27.8","76.2","30.29","315","0","0","0.00","0.00"
"03:14:58","34.2","27.7","76.9","30.29","315","0","0","0.00","0.00"
"03:19:59","34","27.5","77","30.29","315","0","0","0.00","0.00"
"03:24:59","33.8","27.7","78","30.29","315","0","0","0.00","0.00"
"03:29:56","33.9","27.8","78","30.29","315","0","0","0.00","0.00"
"03:34:58","33.8","27.7","78","30.29","315","0","0","0.00","0.00"
"03:39:57","33.6","27.6","78.4","30.29","315","0","0","0.00","0.00"
"03:44:58","33.4","27.6","79","30.29","315","0","0","0.00","0.00"
"03:49:59","33.2","27.4","79","30.29","315","0","0","0.00","0.00"
"03:54:59","33","27.2","79","30.29","315","0","0","0.00","0.00"
"03:59:56","32.9","27.2","79.5","30.29","315","0.7","2.4","0.00","0.00"
"04:04:59","32.6","27.1","80","30.29","315","0.8","2.4","0.00","0.00"
"04:09:58","32.4","26.9","80","30.29","315","0.6","2.4","0.00","0.00"
"04:14:56","32.3","26.8","80","30.29","315","0","1.2","0.00","0.00"
"04:19:56","32.3","26.8","80","30.29","315","0.9","3.6","0.00","0.00"
"04:24:56","32.3","26.8","80","30.29","315","2.1","3.6","0.00","0.00"
"04:29:56","32.3","26.8","80","30.29","322","2.4","4.8","0.00","0.00"
"04:34:57","32.4","26.9","80","30.29","327","1.1","3.6","0.00","0.00"
"04:39:59","32.7","26.9","79.2","30.29","327","0.1","1.2","0.00","0.00"
"04:44:59","32.7","26.8","78.7","30.29","327","0","0","0.00","0.00"
"04:49:59","32.6","26.8","78.9","30.29","327","0","0","0.00","0.00"
"04:54:59","32.4","26.6","79","30.29","327","0","0","0.00","0.00"
"04:59:59","32.3","26.5","79","30.29","327","0","0","0.00","0.00"
"05:04:58","32.1","26.4","79.3","30.29","327","0","0","0.00","0.00"
"05:09:57","31.7","26.4","80.5","30.29","327","0","0","0.00","0.00"
"05:14:59","31.4","26.2","81","30.29","327","0","0","0.00","0.00"
"05:19:56","31.1","26.1","81.8","30.29","327","0.2","3.6","0.00","0.00"
"05:24:56","31.1","26.2","82","30.29","327","1.8","3.6","0.00","0.00"
"05:29:56","31.3","26.1","81.1","30.29","327","0","1.2","0.00","0.00"
"05:34:56","31.5","26.3","81","30.28","331","2.4","8.4","0.00","0.00"
"05:39:59","32.2","26.6","80","30.28","330","3.1","4.8","0.00","0.00"
"05:44:58","33.2","27","77.9","30.28","313","3.3","6","0.00","0.00"
"05:49:56","33.9","27.1","76","30.28","313","4.6","7.2","0.00","0.00"
"05:54:59","34.3","27.3","75.1","30.28","323","6","8.4","0.00","0.00"
"05:59:59","34.6","27.2","74.1","30.28","323","6.3","13.2","0.00","0.00"
"06:04:58","34.7","27.3","74","30.28","325","2.9","6","0.00","0.00"
"06:09:58","34.6","27.2","74","30.28","347","3.6","13.2","0.00","0.00"
"06:14:56","34.4","27","74","30.28","317","2.4","6","0.00","0.00"
"06:19:56","34.4","27","74","30.28","339","2.6","7.2","0.00","0.00"
"06:24:56","34.2","26.8","74","30.28","334","2.5","6","0.00","0.00"
"06:29:59","34","26.9","74.8","30.28","337","3.6","6","0.00","0.00"
"06:34:56","33.9","26.8","75","30.28","325","4.9","9.6","0.00","0.00"
"06:39:57","34","26.9","75","30.28","333","5.1","12","0.00","0.00"
"06:44:58","33.9","26.8","75","30.29","327","5.7","12","0.00","0.00"
"06:49:57","33.8","26.7","75","30.29","334","6.7","13.2","0.00","0.00"
"06:54:57","33.7","26.5","74.7","30.29","326","5.7","9.2","0.00","0.00"
"06:59:57","33.5","26.4","75","30.30","337","6.1","13.2","0.00","0.00"
"07:04:59","33.4","26.3","75","30.30","332","3","9.6","0.00","0.00"
"07:09:58","33.3","26","74.4","30.30","347","4.3","10.8","0.00","0.00"
"07:14:56","33.3","25.9","74","30.30","326","3.9","8.4","0.00","0.00"
"07:19:56","33.5","26.1","74","30.30","353","3.2","7.2","0.00","0.00"
"07:24:56","33.7","26","73.1","30.30","325","3.4","8.4","0.00","0.00"
"07:29:56","33.8","26.1","73","30.30","305","3.4","10.8","0.00","0.00"
"07:34:57","33.9","26.2","73","30.30","332","5.3","10.8","0.00","0.00"
"07:39:59","34","26","72.1","30.30","333","6.8","12","0.00","0.00"
"07:44:59","34.2","26.1","72","30.30","342","6.6","16.1","0.00","0.00"
"07:49:59","34.4","26.3","72","30.30","335","6.1","13.2","0.00","0.00"
"07:54:59","34.6","26.3","71.3","30.30","335","5.9","16.1","0.00","0.00"
"07:59:59","34.6","26.3","71.3","30.30","340","4","15","0.00","0.00"
"08:04:58","34.5","26.2","71.3","30.30","349","2","7.2","0.00","0.00"
"08:09:57","34.5","26.4","71.8","30.30","346","0.9","4.6","0.00","0.00"
"08:14:59","34.6","26.4","71.7","30.31","346","1.2","3.6","0.00","0.00"
"08:19:59","34.9","26.4","71","30.31","33","1.6","4.8","0.00","0.00"
"08:24:59","35.2","26.5","70.3","30.31","24","1.4","6","0.00","0.00"
"08:29:58","35.5","26.6","69.8","30.31","343","3.2","7.2","0.00","0.00"
"08:34:58","35.6","26.6","69.5","30.30","331","4.1","8.4","0.00","0.00"
"08:39:56","35.7","26.7","69.5","30.30","322","4","8.1","0.00","0.00"
"08:44:56","35.8","26.4","68.5","30.30","320","6.4","13.2","0.00","0.00"
"08:49:59","36.1","26.6","68.2","30.30","315","4.9","12","0.00","0.00"
"08:54:59","36.3","26.5","67.3","30.30","318","5.5","12","0.00","0.00"
"08:59:58","36.4","26.6","67.2","30.30","341","3.3","9.6","0.00","0.00"
"09:04:57","36.6","26.8","67.3","30.30","346","2.4","6","0.00","0.00"
"09:09:59","36.8","26.8","66.8","30.30","340","3.1","12","0.00","0.00"
"09:14:57","36.9","26.6","66","30.31","1","4.5","13.2","0.00","0.00"
"09:19:57","37","26.7","66","30.31","343","3.7","8.4","0.00","0.00"
"09:24:56","37.1","26.6","65.6","30.31","341","6","13.2","0.00","0.00"
"09:29:56","37.1","26.5","65.3","30.31","334","5.3","12","0.00","0.00"
"09:34:56","37.1","26.5","65.2","30.31","310","2.9","6","0.00","0.00"
"09:39:57","37.3","26.6","65","30.31","330","4","8.4","0.00","0.00"
"09:44:57","37.7","26.9","64.7","30.31","349","3.2","7.2","0.00","0.00"
"09:49:58","38.4","26.7","62.3","30.31","311","3.8","8.4","0.00","0.00"
"09:54:58","38.8","26.8","61.9","30.31","339","5.3","12","0.00","0.00"
"09:59:57","39","26.6","60.9","30.31","338","5.2","10.8","0.00","0.00"
"10:04:56","39.4","27.1","60.9","30.30","335","4.9","13.2","0.00","0.00"
"10:09:59","39.9","26.7","59.1","30.30","341","5.8","13.2","0.00","0.00"
"10:14:56","40.2","26.5","57.7","30.30","335","5.7","17.3","0.00","0.00"
"10:19:56","40.6","26.1","56.1","30.30","324","5.4","16.1","0.00","0.00"
"10:24:59","40.8","25.9","55.2","30.30","315","4.1","11.5","0.00","0.00"
"10:29:59","41.2","25.8","54","30.30","333","5.1","13.2","0.00","0.00"
"10:34:59","41.5","25.4","52.3","30.30","324","6.3","16.8","0.00","0.00"
"10:39:57","41.3","24.6","51.1","30.30","311","6.6","17.3","0.00","0.00"
"10:44:57","41.3","25.6","53.2","30.30","316","4.2","10.4","0.00","0.00"
"10:49:57","41.9","26.4","54.1","30.30","326","3.3","9.2","0.00","0.00"
"10:54:56","42.5","26.3","52.5","30.30","326","4.3","8.1","0.00","0.00"
"10:59:56","42.9","26.4","51.9","30.30","325","3.1","7.2","0.00","0.00"
"11:04:59","43.2","26.1","50.6","30.29","346","5.1","15","0.00","0.00"
"11:09:57","43.2","25.5","49.3","30.29","340","5.9","15","0.00","0.00"
"11:14:59","43","24.7","48.2","30.29","322","6.7","13.2","0.00","0.00"
"11:19:58","43","25.8","50.3","30.28","336","6.6","16.1","0.00","0.00"
"11:24:58","43.3","24.6","47.5","30.28","336","7.2","16.1","0.00","0.00"
"11:29:57","43.2","25","48.4","30.28","298","4.5","8.4","0.00","0.00"
"11:34:56","43.3","24.8","47.9","30.27","310","5.9","13.2","0.00","0.00"
"11:39:58","43","23.5","45.8","30.27","329","7.5","16.1","0.00","0.00"
"11:44:57","43.2","25.1","48.5","30.27","314","2.7","8.1","0.00","0.00"
"11:49:57","43.9","25.1","47.4","30.27","297","4","8.4","0.00","0.00"
"11:54:57","44.3","25.2","46.8","30.27","299","5.2","10.8","0.00","0.00"
"11:59:56","44.1","24.5","45.8","30.27","305","4.5","13.2","0.00","0.00"
"12:04:59","43.8","23.6","44.7","30.26","327","6.2","13.2","0.00","0.00"
"12:09:58","43.3","23.4","45","30.26","306","5","15.6","0.00","0.00"
"12:14:59","43.3","23.3","44.9","30.26","336","6","16.1","0.00","0.00"
"12:19:59","43.3","24.1","46.3","30.25","335","4.3","10.8","0.00","0.00"
"12:24:58","43.5","24.4","46.6","30.25","335","3.1","8.4","0.00","0.00"
"12:29:59","43.6","23.6","45","30.25","336","4","8.4","0.00","0.00"
"12:34:58","43.6","24","45.7","30.25","346","2.5","7.2","0.00","0.00"
"12:39:56","43.6","24.6","46.9","30.25","344","2","4.8","0.00","0.00"
"12:44:59","43.6","25.7","48.9","30.25","342","1.9","12","0.00","0.00"
"12:49:59","43.6","24.7","47.1","30.25","322","3.5","13.2","0.00","0.00"
"12:54:58","43.6","25.2","48.1","30.25","0","1.9","4.8","0.00","0.00"
"12:59:58","43.7","25.6","48.6","30.25","22","1.6","4.8","0.00","0.00"
"13:04:56","43.6","24.9","47.3","30.24","332","3.5","7.2","0.00","0.00"
"13:09:59","43.6","25.3","48.3","30.24","337","2.5","7.2","0.00","0.00"
"13:14:56","43.7","24.6","46.8","30.24","323","3.4","7.2","0.00","0.00"
"13:19:52","43.8","25.5","48.4","30.24","330","1.6","10.8","0.00","0.00"
"13:24:59","44.2","25.2","47","30.24","344","2.5","10.4","0.00","0.00"
"13:29:58","44.7","24.9","45.5","30.24","334","1.8","6","0.00","0.00"
"13:34:58","45.1","25.1","45","30.24","321","2.3","4.8","0.00","0.00"
"13:39:56","45.6","25.4","45","30.24","316","2","3.6","0.00","0.00"
"13:44:59","46.1","25.2","43.6","30.24","310","2.2","6","0.00","0.00"
"13:49:59","46.2","24.9","43.1","30.23","282","3.1","6","0.00","0.00"
"13:54:58","46.2","23.8","41.1","30.23","335","4.3","8.4","0.00","0.00"
"13:59:57","46.1","24.2","41.8","30.23","340","4.3","7.2","0.00","0.00"
"14:04:56","46.2","24.1","41.5","30.23","342","4.5","8.4","0.00","0.00"
"14:09:59","46.3","23.5","40.5","30.23","339","3","7.2","0.00","0.00"
"14:14:56","46.6","24.6","41.8","30.24","206","2.6","6","0.00","0.00"
"14:19:56","46.9","24.5","41.2","30.24","330","3.2","12","0.00","0.00"
"14:24:59","46.9","24.2","40.8","30.24","350","2.8","11.5","0.00","0.00"
"14:29:58","46.7","24","40.6","30.24","318","2.4","4.8","0.00","0.00"
"14:34:58","46.4","23.4","40.1","30.23","328","3.2","7.2","0.00","0.00"
"14:39:56","46.3","24","41.2","30.23","330","2.8","6","0.00","0.00"
"14:44:59","46.9","25.3","42.7","30.23","331","1.1","3.6","0.00","0.00"
"14:49:55","47.4","25.7","42.5","30.23","333","0.9","4.8","0.00","0.00"
"14:54:59","47.8","25.5","41.5","30.23","335","1.5","4.8","0.00","0.00"
"14:59:58","47.9","24.8","40","30.23","335","1.9","4.8","0.00","0.00"
"15:04:57","48.2","25.6","41","30.23","336","0.7","2.4","0.00","0.00"
"15:09:59","48.4","25.4","40.5","30.23","336","0.6","2.4","0.00","0.00"
"15:14:57","48.8","25.8","40.6","30.23","336","1.4","3.6","0.00","0.00"
"15:19:57","48.6","25.1","39.7","30.22","290","2.7","4.8","0.00","0.00"
"15:24:56","48","25.3","40.8","30.22","207","2.2","3.6","0.00","0.00"
"15:29:56","47.6","23.8","39","30.22","207","0.4","2.4","0.00","0.00"
"15:34:56","47.4","24.4","40.2","30.22","207","0.1","1.2","0.00","0.00"
"15:39:58","47.3","24.3","40.1","30.22","207","0","3.6","0.00","0.00"
"15:44:58","47.2","24.3","40.4","30.22","217","1.1","3.6","0.00","0.00"
"15:49:58","46.8","23.6","39.8","30.22","218","1.3","2.4","0.00","0.00"
"15:54:57","46.6","23.8","40.5","30.22","218","0.8","2.4","0.00","0.00"
"15:59:59","46.3","23.8","40.8","30.22","218","0.3","2.4","0.00","0.00"
"16:04:57","46.5","23.5","40.1","30.21","218","0","0","0.00","0.00"
"16:09:57","46.7","24.2","41.1","30.21","218","0.1","1.2","0.00","0.00"
"16:14:59","46.9","24.2","40.8","30.21","218","0","0","0.00","0.00"
"16:19:59","46.6","24.2","41.2","30.21","218","0","0","0.00","0.00"
"16:24:59","46.3","24.8","42.7","30.21","218","0","0","0.00","0.00"
"16:29:56","45.8","24.5","43","30.21","218","0","0","0.00","0.00"
"16:34:57","45","24.5","44.3","30.21","218","0","0","0.00","0.00"
"16:39:59","44.3","24.2","45","30.21","218","0","0","0.00","0.00"
"16:44:56","43.5","24","45.9","30.21","218","0","0","0.00","0.00"
"16:49:56","42.7","23.7","46.7","30.21","218","0.1","1.2","0.00","0.00"
"16:54:56","41.8","23.1","47.2","30.21","218","0.1","1.2","0.00","0.00"
"16:59:56","41.2","22.9","47.8","30.22","218","0","0","0.00","0.00"
"17:04:59","40.7","23.3","49.5","30.22","218","0.2","1.2","0.00","0.00"
"17:09:58","40.2","24","52.1","30.22","218","0.8","1.2","0.00","0.00"
"17:14:57","39.6","24.6","54.6","30.23","218","0","1.2","0.00","0.00"
"17:19:58","39.2","24.4","55","30.23","218","0","0","0.00","0.00"
"17:24:59","38.7","24.7","56.9","30.23","218","0","0","0.00","0.00"
"17:29:56","38","24.4","57.8","30.23","218","0","0","0.00","0.00"
"17:34:57","37.5","24.4","58.9","30.23","218","0","0","0.00","0.00"
"17:39:56","36.9","25.1","61.8","30.23","218","0","0","0.00","0.00"
"17:44:56","36.3","24.9","62.9","30.24","218","0","1.2","0.00","0.00"
"17:49:57","35.9","24.3","62.5","30.24","218","0.2","1.2","0.00","0.00"
"17:54:58","35.6","24","62.4","30.24","218","0","0","0.00","0.00"
"17:59:58","35.3","24","62.9","30.24","218","0","0","0.00","0.00"
"18:04:58","34.9","24.4","65.3","30.24","218","0.4","2.4","0.00","0.00"
"18:09:56","34.4","24.6","67","30.24","218","0.1","2.3","0.00","0.00"
"18:14:59","34","24.6","68.1","30.24","218","0","0","0.00","0.00"
"18:19:56","33.6","24.9","69.9","30.24","218","0.1","1.2","0.00","0.00"
"18:24:56","33.2","24.8","71","30.24","218","0","0","0.00","0.00"
"18:29:57","32.9","24.5","71.1","30.24","218","0.4","2.4","0.00","0.00"
"18:34:57","32.5","24.5","72","30.23","218","0.1","1.2","0.00","0.00"
"18:39:56","32.1","24.1","72","30.23","218","0","0","0.00","0.00"
"18:44:56","31.8","24.2","73.2","30.23","218","0.3","1.2","0.00","0.00"
"18:49:57","31.7","24.6","74.8","30.22","218","0.2","1.2","0.00","0.00"
"18:54:57","31.5","24.4","74.7","30.22","218","1","3.6","0.00","0.00"
"18:59:58","31.5","24.5","75","30.23","218","2.2","3.6","0.00","0.00"
"19:04:57","31.5","24.5","75","30.23","218","0.7","2.4","0.00","0.00"
"19:09:56","31.4","24.6","75.5","30.23","218","0.1","2.4","0.00","0.00"
"19:14:59","31.2","24.5","76.2","30.25","218","0.3","2.4","0.00","0.00"
"19:19:56","31","24.6","77","30.25","218","0.2","1.2","0.00","0.00"
"19:24:56","30.9","24.5","77","30.25","218","0","1.2","0.00","0.00"
"19:29:57","30.8","24.5","77.3","30.25","218","0","0","0.00","0.00"
"19:34:57","30.5","24.5","78","30.25","218","1","2.4","0.00","0.00"
"19:39:56","30.3","24.3","78","30.25","218","0.8","2.3","0.00","0.00"
"19:44:57","30.2","24.2","78","30.25","218","0.1","1.2","0.00","0.00"
"19:49:57","30","24","78","30.25","218","0.9","1.2","0.00","0.00"
"19:54:58","29.9","23.9","78","30.25","218","0.1","1.2","0.00","0.00"
"19:59:58","29.7","23.7","78","30.25","218","0","0","0.00","0.00"
"20:04:57","29.5","23.6","78.3","30.25","218","0.5","1.2","0.00","0.00"
"20:09:57","29.4","23.4","78.1","30.25","218","0","1.2","0.00","0.00"
"20:14:56","29.2","23.4","78.7","30.25","218","0","0","0.00","0.00"
"20:19:56","29","23.4","79.4","30.24","218","0.7","2.4","0.00","0.00"
"20:24:56","28.7","23.5","80.7","30.24","218","0.5","2.3","0.00","0.00"
"20:29:57","28.5","23.4","81","30.24","218","0","1.2","0.00","0.00"
"20:34:57","28.5","23.4","81","30.23","218","0.9","2.4","0.00","0.00"
"20:39:56","28.5","23.3","80.6","30.23","218","0","1.2","0.00","0.00"
"20:44:57","28.4","23","80","30.23","218","0","0","0.00","0.00"
"20:49:57","28.2","22.8","80","30.23","218","0","0","0.00","0.00"
"20:54:58","28","22.9","80.9","30.23","218","0","0","0.00","0.00"
"20:59:59","27.9","22.8","81","30.23","218","0","0","0.00","0.00"
"21:04:58","27.7","22.9","82","30.23","218","0","0","0.00","0.00"
"21:09:58","27.6","22.8","82","30.23","218","0","0","0.00","0.00"
"21:14:57","27.5","22.6","81.6","30.23","218","0","0","0.00","0.00"
"21:19:57","27.4","22.3","81","30.23","218","0","0","0.00","0.00"
"21:24:58","27.2","22.2","81.2","30.23","218","0","0","0.00","0.00"
"21:29:58","27.1","22.3","81.9","30.24","218","0","0","0.00","0.00"
"21:34:59","27","22.2","82","30.24","218","0","0","0.00","0.00"
"21:39:58","27","22.4","82.7","30.24","218","0","0","0.00","0.00"
"21:44:59","26.9","22.2","82.2","30.24","218","0","0","0.00","0.00"
"21:49:56","26.8","22","82","30.24","218","0","0","0.00","0.00"
"21:54:56","26.8","22.2","82.7","30.24","218","0","0","0.00","0.00"
"21:59:57","26.8","22.3","83","30.24","218","0","0","0.00","0.00"
"22:04:56","26.7","22.2","83","30.24","218","0","0","0.00","0.00"
"22:09:59","26.6","22.1","83","30.24","218","0","0","0.00","0.00"
"22:14:58","26.5","22","83","30.24","218","0","0","0.00","0.00"
"22:19:58","26.3","22","83.6","30.24","218","0","0","0.00","0.00"
"22:24:59","26.3","22.1","84","30.24","218","0","0","0.00","0.00"
"22:29:59","26.2","22","84","30.24","218","0","0","0.00","0.00"
"22:34:56","26.1","21.9","84","30.23","218","0","0","0.00","0.00"
"22:39:59","25.9","21.9","84.7","30.23","218","0","0","0.00","0.00"
"22:44:56","25.8","21.9","85","30.23","218","0","0","0.00","0.00"
"22:49:56","25.6","21.7","85","30.23","218","0","0","0.00","0.00"
"22:54:57","25.5","21.7","85.4","30.23","218","0","0","0.00","0.00"
"22:59:58","25.4","21.8","86","30.23","218","0","0","0.00","0.00"
"23:04:57","25.4","21.8","86","30.23","218","0","0","0.00","0.00"
"23:09:56","25.4","21.8","86","30.23","218","0","0","0.00","0.00"
"23:14:59","25.3","21.7","86","30.23","218","0","0","0.00","0.00"
"23:19:56","25.2","21.6","86","30.23","218","0","0","0.00","0.00"
"23:24:56","25.2","21.6","86","30.23","218","0","0","0.00","0.00"
"23:29:57","25.2","21.6","86","30.23","218","0","0","0.00","0.00"
"23:34:58","25","21.4","86","30.23","218","0","0","0.00","0.00"
"23:39:57","24.9","21.3","86","30.23","218","0","0","0.00","0.00"
"23:44:57","24.7","21.1","86","30.23","218","0","0","0.00","0.00"
"23:49:58","24.6","21.1","86.4","30.23","218","0","0","0.00","0.00"
"23:54:55","24.5","21.1","86.7","30.23","218","0","0","0.00","0.00"
